Location: Del Amo
(33.8464°N, 118.2104°W)
Time: 17:54:34
(UTC+00:00)

Vanguard 1 Rocket - Pass Details

Date: 13 September 2024
Orbit: 650 x 4218 km, 34.3° (Epoch: 04 October)

Event Time Altitude Azimuth Distance (km) Brightness Sun altitude
Rises 10:01:16 0° 216° (SW) 4,808 - -41.3°
Reaches altitude 10° 10:03:59 10° 210° (SSW) 4,176 - -40.9°
Exits shadow 10:12:44 45° 165° (SSE) 3,217 9.8 -39.5°
Maximum altitude 10:15:35 48° 139° (SE) 3,363 10.0 -39.1°
Drops below altitude 10° 10:36:11 10° 74° (ENE) 7,124 12.6 -35.7°
Sets 10:42:40 0° 70° (ENE) 8,382 13.3 -34.5°
